EW4238 Weather Reports


time (UTC)temp
F
wind
direction
speed
knots
gust
knots
rain 1hr
in
rain 24hr
in
rain mn
in
humidity
%
barometer
mb
20260505213009 56 102 1.7 8.7 0.00 0.00 0.00 28 1018.7
20260505211508 56 10 4.3 9.6 0.00 0.00 0.00 27 1018.9
20260505210007 57 17 6.1 14.8 0.00 0.00 0.00 25 1018.8
20260505204505 56 24 4.3 13.0 0.00 0.00 0.00 28 1019.0
20260505203013 56 359 6.1 13.0 0.00 0.00 0.00 27 1018.9
20260505201502 56 360 5.2 13.0 0.00 0.00 0.00 28 1019.0
20260505200002 57 350 5.2 18.2 0.00 0.00 0.00 29 1019.0
20260505194602 57 333 6.1 10.4 0.00 0.00 0.00 28 1019.0
20260505193125 55 329 5.2 10.4 0.00 0.00 0.00 29 1019.1
20260505191559 55 27 3.5 13.9 0.00 0.00 0.00 28 1019.1
20260505190052 58 335 7.0 14.8 0.00 0.00 0.00 27 1019.1
20260505184554 57 54 4.3 10.4 0.00 0.00 0.00 29 1019.1
20260505183048 55 29 4.3 14.8 0.00 0.00 0.00 30 1019.2
20260505181548 55 54 2.6 12.2 0.00 0.00 0.00 32 1019.2
20260505180049 54 18 4.3 13.0 0.00 0.00 0.00 33 1019.2
20260505174548 55 12 6.1 14.8 0.00 0.00 0.00 33 1019.2
20260505173048 53 61 2.6 9.6 0.00 0.00 0.00 36 1019.2
20260505171550 51 56 4.3 8.7 0.00 0.00 0.00 37 1019.1
20260505170045 50 323 4.3 13.9 0.00 0.00 0.00 38 1019.2
20260505164546 52 25 6.1 10.4 0.00 0.00 0.00 38 1019.2
20260505163045 52 43 1.7 9.6 0.00 0.00 0.00 41 1019.2
20260505161644 51 339 3.5 11.3 0.00 0.00 0.00 45 1019.2
20260505153047 47 330 4.3 10.4 0.00 0.00 0.00 52 1019.4
20260505151540 45 337 2.6 13.0 0.00 0.00 0.00 52 1019.4
20260505124529 37 355 0.0 3.5 0.00 0.00 0.00 69 1018.8
20260505123028 36 31 0.9 2.6 0.00 0.00 0.00 69 1018.6
20260505121527 36 21 0.9 3.5 0.00 0.00 0.00 69 1018.5
20260505120039 36 18 0.9 3.5 0.00 0.00 0.00 69 1018.4
20260505114525 36 32 0.0 2.6 0.00 0.00 0.00 70 1018.4
20260505113024 36 44 0.9 3.5 0.00 0.00 0.00 70 1018.4
20260505111530 36 25 0.9 3.5 0.00 0.00 0.00 69 1018.3
20260505101511 38 59 0.9 7.0 0.00 0.00 0.00 62 1017.9
20260505100008 39 180 0.9 4.3 0.00 0.00 0.00 59 1017.9
20260505094506 40 49 0.9 4.3 0.00 0.00 0.00 57 1017.7
20260505093005 40 180 0.0 5.2 0.00 0.00 0.00 56 1017.6
20260505091504 40 35 0.9 2.6 0.00 0.00 0.00 55 1017.6
20260505090003 40 20 0.0 4.3 0.00 0.00 0.00 54 1017.6
20260505084502 41 180 0.0 2.6 0.00 0.00 0.00 54 1017.5
20260505083002 41 180 0.9 2.6 0.00 0.00 0.00 54 1017.5
20260505081502 41 180 1.7 4.3 0.00 0.00 0.00 55 1017.3
20260505080004 41 180 2.6 7.0 0.00 0.00 0.00 55 1017.3
20260505074600 41 180 2.6 7.8 0.00 0.00 0.00 56 1017.3
20260505073001 41 180 3.5 7.8 0.00 0.00 0.00 57 1017.2
20260505071615 41 180 1.7 11.3 0.00 0.00 0.00 57 1017.1
20260505064603 39 180 1.7 7.0 0.00 0.00 0.00 55 1017.4
20260505063055 39 343 0.0 1.7 0.00 0.00 0.00 52 1017.3
20260505061557 39 36 0.0 1.7 0.00 0.00 0.00 51 1017.1
20260505060059 39 47 0.0 0.9 0.00 0.00 0.00 50 1017.0
20260505054545 40 38 0.0 0.0 0.00 0.00 0.00 50 1016.7
20260505053044 40 38 0.0 0.9 0.00 0.00 0.00 50 1016.5
20260505051542 40 38 0.0 0.0 0.00 0.00 0.00 50 1016.4
20260505041545 42 38 0.0 0.9 0.00 0.00 0.00 46 1016.3
20260505040034 42 47 0.0 1.7 0.00 0.00 0.00 46 1016.1
20260505034529 43 42 0.0 2.6 0.00 0.00 0.00 45 1015.7
20260505033026 43 55 0.0 1.7 0.00 0.00 0.00 44 1015.3
20260505031524 44 49 0.9 2.6 0.00 0.00 0.00 43 1015.1
20260505030021 45 54 0.0 3.5 0.00 0.00 0.00 41 1015.0
20260505024518 46 52 0.0 3.5 0.00 0.00 0.00 39 1014.6
20260505023014 47 78 0.9 2.6 0.00 0.00 0.00 36 1014.4
20260505021510 49 347 1.7 9.6 0.00 0.00 0.00 32 1014.1
20260505020006 50 93 1.7 7.8 0.00 0.00 0.00 29 1013.9
20260505014503 52 40 2.6 8.7 0.00 0.00 0.00 26 1013.6
20260505013059 53 103 2.6 8.7 0.00 0.00 0.00 25 1013.5
20260505011558 55 88 2.6 10.4 0.00 0.00 0.00 23 1013.2
20260505010059 56 338 4.3 10.4 0.00 0.00 0.00 22 1013.1
20260505004552 56 326 4.3 13.0 0.00 0.00 0.00 21 1013.2
20260505003057 57 310 7.0 13.9 0.00 0.00 0.00 21 1013.0
20260505001550 58 358 7.8 15.6 0.00 0.00 0.00 21 1013.0
20260505000056 59 17 7.8 16.5 0.00 0.00 0.00 21 1013.0
20260504234548 59 6 4.3 14.8 0.00 0.00 0.00 21 1013.0
20260504233047 60 336 5.2 15.6 0.00 0.00 0.00 21 1013.0
20260504231544 60 2 7.0 13.9 0.00 0.00 0.00 21 1012.9
20260504230045 60 351 7.8 15.6 0.00 0.00 0.00 21 1012.7
20260504224543 60 360 7.8 15.6 0.00 0.00 0.00 22 1012.7
20260504223058 60 316 7.0 18.2 0.00 0.00 0.00 23 1012.7
20260504221543 61 333 8.7 16.5 0.00 0.00 0.00 24 1012.7
20260504220042 61 355 7.0 23.5 0.00 0.00 0.00 25 1012.8
20260504214540 60 37 8.7 17.4 0.00 0.00 0.00 27 1012.6